Location: Curicchi
(45.0167°N, 12.0500°E)
Time: 18:53:00
(UTC+00:00)

Cosmos 1953 Rocket - Pass Details

Date: 07 June 2020
Orbit: 603 x 635 km, 82.5° (Epoch: 06 July)

Event Time Altitude Azimuth Distance (km) Brightness Sun altitude
Exits shadow 00:33:32 47° 210° (SSW) 824 3.7 -19.6°
Maximum altitude 00:34:41 72° 279° (W) 656 3.5 -19.6°
Drops below altitude 10° 00:39:06 10° 5° (N) 1,991 7.3 -19.3°
Sets 00:41:20 0° 7° (N) 2,895 8.4 -19.1°
